Tracking 17142 objects as of 28-May-2015
HD Live streaming from Space Station

AMC-5 (GE-5)

Track AMC-5 (GE-5) now!
AMC-5 (GE-5) is classified as:


NORAD ID: 25516
Int'l Code: 1998-063B
Perigee: 36,044.9 km
Apogee: 36,075.5 km
Inclination: 4.0 °
Period: 1,449.7 minutes
Semi major axis: 42431 km
RCS: 9.3322 m2 (large)
Launch date: October 28, 1998
Source: SOCIETE EUROPEENNE DES SATELLITES (SES)

Broadband internet, business television; 16 Ku-band; CONUS
Your satellite tracking list
Your tracking list is empty





NASA's NSSDC Master Catalog

Two Line Element Set (TLE):
1 25516U 98063B   15146.85378263  .00000079  00000-0  00000+0 0  9999
2 25516 003.9963 065.2885 0003611 014.3053 179.7680 00.99328755 60723

Source of the keplerian elements: AFSPC

N2YO: 327